| time (UTC) | temp F | wind direction | speed knots | gust knots | rain 1hr in | rain 24hr in | rain mn in | humidity % | barometer mb |
| 20260508023021 | 47 | 241 | 0.0 | 2.6 | 0.00 | 0.92 | 0.92 | 94 | 1001.7 |
| 20260508021519 | 48 | 224 | 0.0 | 3.5 | 0.00 | 0.92 | 0.92 | 94 | 1001.8 |
| 20260508020018 | 48 | 207 | 0.0 | 5.2 | 0.00 | 0.92 | 0.92 | 94 | 1001.8 |
| 20260508014518 | 48 | 236 | 0.9 | 4.3 | 0.00 | 0.92 | 0.92 | 94 | 1001.9 |
| 20260508013017 | 48 | 243 | 1.7 | 4.3 | 0.00 | 0.92 | 0.92 | 94 | 1001.8 |
| 20260508011519 | 48 | 218 | 1.7 | 3.5 | 0.00 | 0.92 | 0.92 | 94 | 1001.7 |
| 20260508010023 | 48 | 212 | 1.7 | 4.3 | 0.00 | 0.92 | 0.92 | 94 | 1002.0 |
| 20260508004516 | 49 | 245 | 1.7 | 5.2 | 0.00 | 0.92 | 0.92 | 94 | 1002.4 |
| 20260508003015 | 48 | 213 | 1.7 | 5.2 | 0.00 | 0.92 | 0.92 | 94 | 1002.2 |
| 20260508001515 | 48 | 191 | 0.9 | 4.3 | 0.00 | 0.92 | 0.92 | 94 | 1002.1 |
| 20260508000014 | 48 | 232 | 0.9 | 5.2 | 0.00 | 0.92 | 0.92 | 94 | 1002.4 |
| 20260507234514 | 48 | 225 | 0.9 | 4.3 | 0.00 | 0.92 | 0.92 | 94 | 1002.2 |
| 20260507233014 | 49 | 225 | 1.7 | 7.0 | 0.00 | 0.92 | 0.92 | 94 | 1002.3 |
| 20260507231517 | 48 | 191 | 1.7 | 4.3 | 0.00 | 0.92 | 0.92 | 94 | 1002.6 |
| 20260507230013 | 48 | 224 | 2.6 | 7.0 | 0.00 | 0.92 | 0.92 | 93 | 1002.9 |
| 20260507224511 | 48 | 136 | 0.0 | 7.8 | 0.00 | 0.92 | 0.92 | 93 | 1002.3 |
| 20260507223012 | 48 | 184 | 3.5 | 6.1 | 0.01 | 0.92 | 0.92 | 93 | 1002.8 |
| 20260507221511 | 48 | 169 | 4.3 | 9.6 | 0.01 | 0.92 | 0.92 | 93 | 1002.9 |
| 20260507220011 | 48 | 153 | 5.2 | 10.4 | 0.01 | 0.92 | 0.92 | 93 | 1002.9 |
| 20260507214510 | 47 | 207 | 2.6 | 7.0 | 0.02 | 0.92 | 0.92 | 93 | 1003.1 |
| 20260507213011 | 47 | 217 | 2.6 | 11.3 | 0.07 | 0.91 | 0.91 | 93 | 1003.3 |
| 20260507211509 | 47 | 178 | 6.1 | 15.6 | 0.15 | 0.91 | 0.91 | 93 | 1002.0 |
| 20260507210005 | 48 | 132 | 3.5 | 10.4 | 0.24 | 0.91 | 0.91 | 93 | 1003.0 |
| 20260507204503 | 48 | 135 | 2.6 | 8.7 | 0.35 | 0.91 | 0.91 | 93 | 1003.7 |
| 20260507203059 | 49 | 207 | 3.5 | 7.0 | 0.39 | 0.84 | 0.84 | 93 | 1003.9 |
| 20260507201604 | 49 | 88 | 0.0 | 3.5 | 0.42 | 0.76 | 0.76 | 92 | 1004.4 |
| 20260507200056 | 50 | 257 | 4.3 | 11.3 | 0.39 | 0.67 | 0.67 | 92 | 1005.0 |
| 20260507194559 | 50 | 181 | 4.3 | 9.6 | 0.35 | 0.56 | 0.56 | 92 | 1005.1 |
| 20260507193052 | 50 | 169 | 2.6 | 19.1 | 0.32 | 0.46 | 0.46 | 92 | 1004.6 |
| 20260507191610 | 50 | 167 | 8.7 | 14.8 | 0.24 | 0.35 | 0.35 | 92 | 1004.7 |
| 20260507190048 | 50 | 183 | 5.2 | 14.8 | 0.18 | 0.28 | 0.28 | 92 | 1005.1 |
| 20260507184556 | 51 | 181 | 5.2 | 14.8 | 0.12 | 0.21 | 0.21 | 92 | 1005.6 |
| 20260507183047 | 51 | 178 | 4.3 | 14.8 | 0.04 | 0.13 | 0.13 | 92 | 1005.7 |
| 20260507181543 | 51 | 185 | 7.0 | 14.8 | 0.02 | 0.11 | 0.11 | 91 | 1005.3 |
| 20260507180043 | 51 | 157 | 3.5 | 13.9 | 0.01 | 0.10 | 0.10 | 90 | 1005.4 |
| 20260507174542 | 52 | 209 | 8.7 | 13.9 | 0.00 | 0.09 | 0.09 | 90 | 1005.7 |
| 20260507173039 | 53 | 157 | 7.8 | 18.2 | 0.00 | 0.09 | 0.09 | 90 | 1005.9 |
| 20260507171537 | 53 | 219 | 5.2 | 13.0 | 0.00 | 0.09 | 0.09 | 90 | 1006.2 |
| 20260507170036 | 53 | 123 | 5.2 | 16.5 | 0.00 | 0.09 | 0.09 | 91 | 1006.4 |
| 20260507164543 | 52 | 190 | 5.2 | 15.6 | 0.00 | 0.09 | 0.09 | 91 | 1006.7 |
| 20260507163036 | 52 | 175 | 7.0 | 14.8 | 0.00 | 0.09 | 0.09 | 90 | 1007.2 |
| 20260507161529 | 53 | 221 | 4.3 | 13.9 | 0.00 | 0.09 | 0.09 | 90 | 1007.9 |
| 20260507160033 | 53 | 154 | 4.3 | 14.8 | 0.00 | 0.09 | 0.09 | 91 | 1008.0 |
| 20260507154526 | 53 | 207 | 7.0 | 15.6 | 0.00 | 0.09 | 0.09 | 91 | 1008.4 |
| 20260507153023 | 53 | 135 | 4.3 | 15.6 | 0.00 | 0.09 | 0.09 | 91 | 1008.7 |
| 20260507151522 | 53 | 210 | 6.1 | 12.2 | 0.00 | 0.09 | 0.09 | 91 | 1009.1 |
| 20260507150022 | 52 | 209 | 6.1 | 13.9 | 0.00 | 0.09 | 0.09 | 91 | 1009.4 |
| 20260507144518 | 52 | 193 | 3.5 | 10.4 | 0.00 | 0.09 | 0.09 | 92 | 1009.7 |
| 20260507143031 | 52 | 181 | 3.5 | 11.3 | 0.00 | 0.09 | 0.09 | 92 | 1010.1 |
| 20260507141512 | 52 | 209 | 7.0 | 13.9 | 0.00 | 0.09 | 0.09 | 92 | 1010.5 |
| 20260507140011 | 52 | 202 | 4.3 | 14.8 | 0.00 | 0.09 | 0.09 | 92 | 1010.7 |
| 20260507134512 | 52 | 188 | 5.2 | 12.2 | 0.00 | 0.09 | 0.09 | 92 | 1010.5 |
| 20260507133010 | 51 | 196 | 6.1 | 19.1 | 0.00 | 0.09 | 0.09 | 92 | 1011.1 |
| 20260507131511 | 51 | 128 | 6.1 | 16.5 | 0.00 | 0.09 | 0.09 | 92 | 1010.9 |
| 20260507130021 | 51 | 175 | 9.6 | 16.5 | 0.01 | 0.09 | 0.09 | 92 | 1010.8 |
| 20260507124505 | 50 | 172 | 7.8 | 17.4 | 0.01 | 0.09 | 0.09 | 92 | 1010.7 |
| 20260507123002 | 50 | 149 | 9.6 | 17.4 | 0.01 | 0.09 | 0.09 | 92 | 1011.0 |
| 20260507121600 | 51 | 161 | 7.0 | 14.8 | 0.01 | 0.09 | 0.09 | 92 | 1011.7 |
| 20260507120058 | 51 | 178 | 8.7 | 17.4 | 0.00 | 0.09 | 0.09 | 92 | 1011.7 |
| 20260507114559 | 52 | 198 | 6.1 | 15.6 | 0.00 | 0.09 | 0.09 | 93 | 1012.4 |
| 20260507113056 | 52 | 194 | 7.0 | 16.5 | 0.00 | 0.09 | 0.09 | 93 | 1012.2 |
| 20260507111555 | 51 | 142 | 6.1 | 14.8 | 0.00 | 0.09 | 0.09 | 93 | 1012.5 |
| 20260507110055 | 50 | 179 | 6.1 | 13.9 | 0.00 | 0.09 | 0.09 | 93 | 1012.0 |
| 20260507104556 | 50 | 169 | 5.2 | 10.4 | 0.00 | 0.09 | 0.09 | 92 | 1012.5 |
| 20260507103047 | 50 | 146 | 4.3 | 8.7 | 0.00 | 0.09 | 0.09 | 92 | 1012.9 |
| 20260507101546 | 50 | 179 | 4.3 | 9.6 | 0.00 | 0.09 | 0.09 | 92 | 1012.9 |
| 20260507100053 | 51 | 163 | 4.3 | 11.3 | 0.00 | 0.09 | 0.09 | 92 | 1012.9 |
| 20260507094541 | 51 | 107 | 2.6 | 6.1 | 0.01 | 0.09 | 0.09 | 92 | 1013.0 |
| 20260507093040 | 51 | 203 | 6.1 | 14.8 | 0.02 | 0.09 | 0.09 | 92 | 1013.3 |
| 20260507091541 | 52 | 173 | 5.2 | 14.8 | 0.04 | 0.09 | 0.09 | 92 | 1013.1 |
| 20260507090043 | 52 | 175 | 4.3 | 15.6 | 0.06 | 0.09 | 0.09 | 93 | 1013.2 |
| 20260507084543 | 52 | 200 | 3.5 | 13.9 | 0.06 | 0.08 | 0.08 | 93 | 1013.2 |
| 20260507083035 | 51 | 155 | 5.2 | 12.2 | 0.06 | 0.06 | 0.06 | 93 | 1013.3 |
| 20260507081534 | 51 | 183 | 4.3 | 10.4 | 0.05 | 0.05 | 0.05 | 93 | 1013.3 |
| 20260507080032 | 50 | 179 | 0.9 | 7.0 | 0.03 | 0.03 | 0.03 | 92 | 1013.5 |
| 20260507074530 | 50 | 205 | 0.9 | 5.2 | 0.02 | 0.02 | 0.02 | 92 | 1014.0 |
| 20260507073031 | 50 | 184 | 1.7 | 7.8 | 0.01 | 0.01 | 0.01 | 92 | 1014.3 |
| 20260507071534 | 50 | 186 | 5.2 | 13.0 | 0.00 | 0.00 | 0.00 | 92 | 1014.3 |
| 20260507070032 | 51 | 115 | 6.1 | 12.2 | 0.00 | 0.00 | 0.00 | 92 | 1014.2 |
| 20260507064535 | 51 | 205 | 3.5 | 7.8 | 0.00 | 0.00 | 0.00 | 92 | 1014.5 |
| 20260507063022 | 51 | 229 | 3.5 | 7.8 | 0.00 | 0.00 | 0.00 | 92 | 1014.5 |
| 20260507061520 | 51 | 196 | 2.6 | 5.2 | 0.00 | 0.00 | 0.00 | 92 | 1014.8 |
| 20260507060018 | 51 | 180 | 3.5 | 9.6 | 0.00 | 0.00 | 0.00 | 92 | 1015.1 |
| 20260507054516 | 51 | 225 | 0.0 | 1.7 | 0.00 | 0.00 | 0.00 | 92 | 1015.2 |
| 20260507053013 | 51 | 231 | 0.9 | 4.3 | 0.00 | 0.00 | 0.00 | 92 | 1015.5 |
| 20260507051512 | 51 | 178 | 1.7 | 4.3 | 0.00 | 0.00 | 0.00 | 92 | 1015.7 |
| 20260507050029 | 51 | 229 | 1.7 | 5.2 | 0.00 | 0.00 | 0.00 | 92 | 1016.4 |
| 20260507044508 | 51 | 200 | 1.7 | 4.3 | 0.00 | 0.00 | 0.00 | 92 | 1016.4 |
| 20260507043106 | 51 | 231 | 2.6 | 6.1 | 0.00 | 0.00 | 0.00 | 92 | 1016.8 |
| 20260507041510 | 51 | 213 | 2.6 | 6.1 | 0.00 | 0.00 | 0.00 | 92 | 1017.0 |
| 20260507040001 | 51 | 169 | 3.5 | 7.8 | 0.00 | 0.00 | 0.00 | 92 | 1017.2 |
| 20260507034559 | 51 | 231 | 2.6 | 7.0 | 0.00 | 0.00 | 0.00 | 91 | 1017.5 |
| 20260507033057 | 51 | 195 | 2.6 | 8.7 | 0.00 | 0.00 | 0.00 | 91 | 1017.6 |
| 20260507031555 | 51 | 219 | 5.2 | 10.4 | 0.00 | 0.00 | 0.00 | 91 | 1017.7 |
| 20260507030052 | 52 | 218 | 4.3 | 12.2 | 0.00 | 0.00 | 0.00 | 90 | 1018.0 |
| 20260507024552 | 53 | 215 | 2.6 | 12.2 | 0.00 | 0.00 | 0.00 | 90 | 1018.0 |